{"data":{"norad_id":56783,"epoch":"2026-09-20T22:00:03.000096Z","epoch_age_seconds":78891,"freshness":"FRESH","line1":"1 56783U 23078S   26263.91670139 -.00003008  00000+0 -18706-3 0  9991","line2":"2 56783  70.0010 192.1376 0003917 237.0636 309.7024 15.08282191  5675","mean_motion":15.08282191,"eccentricity":0.0003917,"inclination_deg":70.001,"raan_deg":192.1376,"arg_perigee_deg":237.0636,"mean_anomaly_deg":309.7024,"bstar":-0.00018706,"rev_number":567,"period_min":95.472850411717,"perigee_km":538.73851156575,"apogee_km":544.15931517028,"semimajor_km":6919.585913368,"source":"CELESTRAK","updated_at":"2026-09-21T09:00:33.488284Z"}}